Regional Weather Roundup
Issued by NWS Sioux Falls, SD

Home | Current Version | Previous Version | Text Only | Print | Product List | Glossary Off
Versions: 1 2 3 4 5 6 7 8 9 10 11 12 13 14 15 16 17 18 19 20 21 22 23 24 25 26 27 28 29 30 31 32 33 34 35 36 37 38 39 40 41 42 43 44 45 46 47 48 49 50

000
ASUS43 KFSD 171602
RWRFSD

WEATHER ROUNDUP FOR SE SOUTH DAKOTA/SW MINNESOTA/NW IOWA
NATIONAL WEATHER SERVICE SIOUX FALLS SD
1000 AM CST TUE JAN 17 2017

NOTE: "FAIR" INDICATES FEW OR NO CLOUDS BELOW 12,000 FEET WITH NO
SIGNIFICANT WEATHER AND OR OBSTRUCTIONS TO VISIBILITY.


SDZ038>040-050-052>070-171700-
SOUTHEAST SOUTH DAKOTA

CITY           SKY/WX    TMP DP  RH WIND       PRES   REMARKS
BROOKINGS      CLOUDY    17  13  84 CALM      30.00S
CHAMBERLAIN    CLOUDY    19  15  82 W7        30.04R WCI  10
HURON          CLOUDY    11   9  92 CALM      30.04R
MADISON          N/A     14  14 100 W5          N/A  WCI   6
MITCHELL       CLOUDY    16  12  84 W6        30.06S WCI   7
SIOUX FALLS    CLOUDY    16  13  88 W5        30.04R WCI   9
WINNER         FAIR      29  20  69 SW6       30.02R WCI  23
YANKTON        SUNNY     19  16  86 CALM      30.07S
$$

MNZ071-072-080-081-089-090-097-098-171700-
SOUTHWEST MINNESOTA

CITY           SKY/WX    TMP DP  RH WIND       PRES   REMARKS
JACKSON        CLOUDY    27  27 100 NW5       29.99F FOG     WCI  21
LUVERNE        CLOUDY    16  14  93 NW6       30.02S WCI   7
MARSHALL       CLOUDY    22  16  78 W9        30.02S WCI  12
MONTEVIDEO     CLOUDY    16  12  86 NW5       30.04R WCI   9
PIPESTONE      CLOUDY    16  12  86 NW3       30.00S
REDWOOD FALLS  CLOUDY    22  17  81 W7        30.01S WCI  13
TRACY          CLOUDY    26  22  87 NW3       30.01R
WINDOM         CLOUDY    25  25 100 W5        29.99S WCI  19
WORTHINGTON    FOG       29  28  96 W8        30.00S VSB 1/4 WCI  21
$$

IAZ001>003-012>014-020>022-031-032-NEZ013-014-SDZ071-171700-
NORTHWEST IOWA

CITY           SKY/WX    TMP DP  RH WIND       PRES   REMARKS
CHEROKEE       CLOUDY    27  27 100 W3        30.04R FOG
DENISON        CLOUDY    27  27 100 W8        30.04R FOG     WCI  18
ESTHERVILLE    FOG       27  27 100 NW12      29.99R VSB 3/4 WCI  17
LE MARS        CLOUDY    19  16  86 W7        30.07S WCI  10
ORANGE CITY    CLOUDY    19  19 100 W6        30.03S WCI  11
SHELDON        FOG       21  21 100 W9        30.01S VSB 1/4 WCI  11
SIOUX CITY     CLOUDY    21  16  81 W13       30.09R WCI   9
SPENCER        CLOUDY    30  29  96 NW8       30.01R FOG     WCI  22
STORM LAKE     PTSUNNY   28  28 100 NW13      30.02R FOG     WCI  18
$$

ABBREVIATIONS USED IN REMARKS
   TC - TEMPERATURE IN CELSIUS
  WCI - WIND CHILL INDEX
   HX - HEAT INDEX
  VSB - VISIBILITY





USA.gov is the U.S. government's official web portal to all federal, state and local government web resources and services.